Location: Avenches
(46.8809°N, 7.0410°E)
Time: 18:54:08
(UTC+00:00)

STARLINK-1218 - Pass Details

Date: 30 March 2020
Orbit: 549 x 551 km, 53.0° (Epoch: 04 June)

Event Time Altitude Azimuth Distance (km) Brightness Sun altitude
Rises 18:46:10 0° 263° (W) 2,651 8.5 -8.8°
Reaches altitude 10° 18:48:27 10° 270° (W) 1,765 7.6 -9.1°
Maximum altitude 18:52:18 44° 343° (NNW) 735 4.5 -9.8°
Drops below altitude 10° 18:56:10 10° 57° (ENE) 1,777 5.8 -10.4°
Enters shadow 18:57:07 - 61° (ENE) 2,141 6.2 -10.5°
